TimePDT,TemperatureF,Dew PointF,Humidity,Sea Level PressureIn,VisibilityMPH,Wind Direction,Wind SpeedMPH,Gust SpeedMPH,PrecipitationIn,Events,Conditions,WindDirDegrees,DateUTC
12:55 AM,50.0,46.9,89,29.86,10.0,South,6.9,-,N/A,,Overcast,170,2012-10-12 07:55:00
1:55 AM,51.1,46.9,86,29.86,10.0,SSE,4.6,-,N/A,,Overcast,150,2012-10-12 08:55:00
2:55 AM,51.1,46.9,86,29.86,10.0,SSE,4.6,-,N/A,,Overcast,150,2012-10-12 09:55:00
3:55 AM,51.1,46.9,86,29.86,10.0,Calm,Calm,-,N/A,,Overcast,0,2012-10-12 10:55:00
4:55 AM,51.1,46.9,86,29.86,10.0,Calm,Calm,-,0.01,Rain,Light Rain,0,2012-10-12 11:55:00
5:55 AM,51.1,48.0,89,29.87,10.0,Calm,Calm,-,0.03,Rain,Light Rain,0,2012-10-12 12:55:00
6:55 AM,50.0,48.9,96,29.88,10.0,Calm,Calm,-,0.04,Rain,Light Rain,0,2012-10-12 13:55:00
7:07 AM,50.0,48.2,94,29.88,10.0,Calm,Calm,-,0.01,Rain,Light Rain,0,2012-10-12 14:07:00
7:33 AM,50.0,48.2,94,29.89,10.0,Calm,Calm,-,0.06,Rain,Light Rain,0,2012-10-12 14:33:00
7:55 AM,50.0,48.9,96,29.89,10.0,ESE,3.5,-,0.08,Rain,Light Rain,110,2012-10-12 14:55:00
8:09 AM,50.0,50.0,100,29.89,10.0,ESE,3.5,-,0.03,Rain,Light Rain,120,2012-10-12 15:09:00
8:43 AM,50.0,50.0,100,29.90,10.0,East,3.5,-,0.10,Rain,Light Rain,100,2012-10-12 15:43:00
8:55 AM,51.1,50.0,96,29.90,10.0,East,3.5,-,0.11,Rain,Light Rain,100,2012-10-12 15:55:00
9:04 AM,51.8,50.0,94,29.90,10.0,East,3.5,-,0.00,Rain,Light Rain,100,2012-10-12 16:04:00
9:16 AM,51.8,50.0,94,29.90,10.0,East,3.5,-,0.02,Rain,Light Rain,100,2012-10-12 16:16:00
9:46 AM,51.8,50.0,94,29.91,10.0,East,4.6,-,0.04,Rain,Light Rain,80,2012-10-12 16:46:00
9:55 AM,51.8,50.0,94,29.91,10.0,Calm,Calm,-,N/A,,Overcast,0,2012-10-12 16:55:00
10:02 AM,51.8,51.8,100,29.91,10.0,East,3.5,-,0.00,Rain,Light Rain,80,2012-10-12 17:02:00
10:29 AM,51.8,51.8,100,29.92,10.0,East,4.6,-,0.02,Rain,Light Rain,90,2012-10-12 17:29:00
10:55 AM,52.0,51.1,97,29.92,10.0,East,8.1,-,0.05,Rain,Light Rain,80,2012-10-12 17:55:00
11:05 AM,51.8,51.8,100,29.92,10.0,East,3.5,-,0.02,Rain,Rain,90,2012-10-12 18:05:00
11:55 AM,53.1,52.0,96,29.93,10.0,ENE,3.5,-,0.19,Rain,Rain,70,2012-10-12 18:55:00
12:23 PM,53.6,51.8,94,29.94,10.0,East,4.6,-,0.11,Rain,Heavy Rain,100,2012-10-12 19:23:00
12:33 PM,53.6,51.8,94,29.94,10.0,East,4.6,-,0.17,Rain,Heavy Rain,90,2012-10-12 19:33:00
12:47 PM,53.6,51.8,94,29.94,10.0,Variable,6.9,-,0.22,Rain,Heavy Rain,0,2012-10-12 19:47:00
12:55 PM,53.1,52.0,96,29.94,10.0,East,5.8,-,0.24,Rain,Light Rain,80,2012-10-12 19:55:00
1:12 PM,53.6,53.6,100,29.94,10.0,East,5.8,-,0.00,,Overcast,80,2012-10-12 20:12:00
1:45 PM,55.4,53.6,94,29.93,10.0,Variable,4.6,-,0.00,,Overcast,0,2012-10-12 20:45:00
1:55 PM,55.0,52.0,89,29.93,10.0,Variable,4.6,-,0.00,,Overcast,0,2012-10-12 20:55:00
2:55 PM,53.6,51.8,94,29.93,10.0,South,10.4,-,N/A,Rain,Light Rain,180,2012-10-12 21:55:00
3:11 PM,53.6,51.8,94,29.93,10.0,South,12.7,17.3,0.01,Rain,Light Rain,180,2012-10-12 22:11:00
3:55 PM,53.1,51.1,93,29.94,10.0,South,10.4,19.6,0.03,,Overcast,180,2012-10-12 22:55:00
4:21 PM,53.6,51.8,94,29.93,10.0,South,11.5,23.0,N/A,,Overcast,190,2012-10-12 23:21:00
4:55 PM,53.1,50.0,89,29.95,10.0,South,9.2,17.3,N/A,,Overcast,190,2012-10-12 23:55:00
5:55 PM,53.1,50.0,89,29.95,10.0,South,10.4,21.9,0.00,Rain,Light Rain,180,2012-10-13 00:55:00
6:55 PM,53.6,50.0,88,29.95,10.0,South,12.7,23.0,N/A,,Overcast,180,2012-10-13 01:55:00
7:55 PM,53.1,50.0,89,29.97,10.0,South,13.8,26.5,N/A,,Overcast,180,2012-10-13 02:55:00
8:55 PM,54.0,51.1,90,29.98,10.0,South,9.2,-,N/A,,Overcast,170,2012-10-13 03:55:00
9:55 PM,54.0,51.1,90,30.00,10.0,South,16.1,23.0,0.00,Rain,Light Rain,190,2012-10-13 04:55:00
10:20 PM,53.6,51.8,94,30.02,10.0,SSW,12.7,23.0,0.00,Rain,Light Rain,200,2012-10-13 05:20:00
10:48 PM,53.6,51.8,94,30.01,10.0,South,13.8,23.0,N/A,Rain,Light Rain,180,2012-10-13 05:48:00
10:55 PM,53.1,52.0,96,30.01,10.0,South,11.5,21.9,0.02,,Overcast,180,2012-10-13 05:55:00
11:05 PM,53.6,51.8,94,30.01,10.0,South,13.8,21.9,N/A,,Overcast,170,2012-10-13 06:05:00
11:37 PM,53.6,51.8,94,30.02,10.0,South,12.7,17.3,N/A,,Overcast,190,2012-10-13 06:37:00
11:55 PM,54.0,52.0,93,30.03,10.0,SSW,9.2,-,N/A,,Overcast,200,2012-10-13 06:55:00